| |
Missouri Department of Transportation

Social Media Facebook Twitter Flickr Blog YouTube RSS

Current AWOS Information

 
AWOS Home - General Info for all Airports
Current AWOS for all Airports - Current METAR for all Airports
Glossary - Disclaimer - Other Links


SULLIVAN--SULLIVAN REGIONAL--KUUV
 
Recent AWOS History
 
08/28/14     08:02 AM CDT      13:02 GMT
Air Temperature 75°F (24°C ) 1st Cloud Layer Clear
Dew Point 69°F (21°C) 2nd Cloud Layer  
Barometric Pressure 30.09 in Hg. 3rd Cloud Layer  
Wind Speed 3 mph (3 knots) Density Altitude 2000 feet
Peak Wind Gusts   Variable Wind Directions  
Wind Direction Quadrant(150°) Variable Visibility  
Visibility 10 statute miles  

Thunderstorm and Precipitation Identification: 
Thunderstorm Remarks: 

Current METAR Record: METAR KUUV 281305Z AUTO 17003KT 10SM CLR 24/21 A3009 RMK AO2 LTG DSNT W

 

 

 

About Us
How Do I...
Contact Us
Missouri Department of Transportation
Central Office
105 W. Capitol Avenue
Jefferson City, MO 65102
1-888-ASK-MODOT (275-6636)
1-866-831-6277 (Motor Carrier Services)
Drivers License Offices
horz_bar
| | |
Missouri State Government
© 2013 Missouri Department of Transportation. All Rights Reserved.   Privacy Policy.
 
 
 
 
RSS FeedYoutubeBlogFlickrTwitter Facebook